DW2227 Weather Reports


Display with metric or nautical units.
time (UTC)temp
F
wind
direction
speed
MPH
gust
MPH
rain 1hr
in
rain 24hr
in
rain mn
in
humidity
%
barometer
mb
20260510234819 68 241 1.0 5.0 0.00 0.00 0.00 26 1018.1
20260510234327 68 251 1.0 5.0 0.00 0.00 0.00 25 1018.2
20260510233836 68 310 1.0 6.0 0.00 0.00 0.00 25 1018.2
20260510233321 68 265 1.0 7.0 0.00 0.00 0.00 25 1018.3
20260510232828 68 254 0.0 7.0 0.00 0.00 0.00 26 1018.4
20260510232335 68 271 1.0 3.0 0.00 0.00 0.00 25 1018.5
20260510231817 68 232 0.0 3.0 0.00 0.00 0.00 26 1018.4
20260510231320 68 313 1.0 4.0 0.00 0.00 0.00 25 1018.4
20260510230840 69 13 1.0 3.0 0.00 0.00 0.00 25 1018.5
20260510230342 69 360 0.0 2.0 0.00 0.00 0.00 30 1018.6
20260510225822 69 316 1.0 3.0 0.00 0.00 0.00 27 1018.7
20260510225325 68 360 0.0 3.0 0.00 0.00 0.00 30 1018.7
20260510224829 68 275 0.0 7.0 0.00 0.00 0.00 27 1018.7
20260510224332 68 242 2.0 7.0 0.00 0.00 0.00 23 1018.8
20260510223855 69 298 2.0 5.0 0.00 0.00 0.00 26 1018.9
20260510223338 69 279 2.0 5.0 0.00 0.00 0.00 26 1019.0
20260510222842 69 265 1.0 3.0 0.00 0.00 0.00 23 1019.1
20260510222339 69 346 1.0 3.0 0.00 0.00 0.00 27 1018.9
20260510221825 69 302 1.0 3.0 0.00 0.00 0.00 23 1019.1
20260510221332 70 223 1.0 3.0 0.00 0.00 0.00 23 1019.2
20260510220820 69 257 2.0 5.0 0.00 0.00 0.00 23 1019.2
20260510220325 69 283 1.0 5.0 0.00 0.00 0.00 26 1019.3
20260510215832 69 331 1.0 5.0 0.00 0.00 0.00 25 1019.2
20260510215339 70 313 1.0 4.0 0.00 0.00 0.00 23 1019.3
20260510214825 70 298 2.0 4.0 0.00 0.00 0.00 24 1019.2
20260510214352 70 309 1.0 4.0 0.00 0.00 0.00 26 1019.2
20260510213816 69 288 1.0 5.0 0.00 0.00 0.00 26 1019.2
20260510213323 69 307 2.0 6.0 0.00 0.00 0.00 26 1019.3
20260510212830 70 303 2.0 6.0 0.00 0.00 0.00 23 1019.2
20260510212317 69 340 0.0 5.0 0.00 0.00 0.00 25 1019.2
20260510211821 70 342 1.0 5.0 0.00 0.00 0.00 23 1019.2
20260510211321 70 303 1.0 4.0 0.00 0.00 0.00 26 1019.1
20260510210823 70 229 1.0 2.0 0.00 0.00 0.00 24 1019.0
20260510210324 69 325 0.0 3.0 0.00 0.00 0.00 26 1019.0
20260510205828 69 347 1.0 3.0 0.00 0.00 0.00 28 1019.1
20260510205331 69 308 1.0 3.0 0.00 0.00 0.00 29 1019.0
20260510204834 69 16 1.0 3.0 0.00 0.00 0.00 32 1019.0
20260510204317 69 273 1.0 3.0 0.00 0.00 0.00 24 1018.9
20260510203821 69 257 1.0 3.0 0.00 0.00 0.00 25 1019.1
20260510203325 69 355 1.0 3.0 0.00 0.00 0.00 29 1019.1
20260510202827 69 11 1.0 3.0 0.00 0.00 0.00 27 1019.1
20260510202330 69 332 2.0 5.0 0.00 0.00 0.00 23 1019.2
20260510201834 69 319 2.0 5.0 0.00 0.00 0.00 24 1019.2
20260510201321 69 311 1.0 5.0 0.00 0.00 0.00 27 1019.1
20260510200830 69 301 2.0 5.0 0.00 0.00 0.00 26 1019.2
20260510200352 69 206 1.0 3.0 0.00 0.00 0.00 25 1019.2
20260510195817 68 296 1.0 4.0 0.00 0.00 0.00 29 1019.2
20260510195322 68 355 1.0 4.0 0.00 0.00 0.00 29 1019.4
20260510194830 68 355 1.0 3.0 0.00 0.00 0.00 27 1019.4
20260510194318 68 319 2.0 4.0 0.00 0.00 0.00 31 1019.5
20260510193825 68 327 2.0 5.0 0.00 0.00 0.00 27 1019.5
20260510193331 68 271 1.0 5.0 0.00 0.00 0.00 29 1019.7
20260510192836 68 259 1.0 3.0 0.00 0.00 0.00 26 1019.8
20260510192322 68 241 1.0 4.0 0.00 0.00 0.00 28 1019.8
20260510191826 68 309 1.0 4.0 0.00 0.00 0.00 31 1019.8
20260510191329 68 277 1.0 3.0 0.00 0.00 0.00 29 1019.8
20260510190831 68 311 0.0 5.0 0.00 0.00 0.00 28 1019.8
20260510190355 68 32 1.0 5.0 0.00 0.00 0.00 27 1019.8
20260510185836 68 262 1.0 4.0 0.00 0.00 0.00 27 1020.1
20260510185319 68 17 2.0 4.0 0.00 0.00 0.00 31 1019.7
20260510184840 68 355 1.0 3.0 0.00 0.00 0.00 32 1019.8
20260510184318 67 221 0.0 3.0 0.00 0.00 0.00 26 1019.8
20260510183820 67 281 0.0 3.0 0.00 0.00 0.00 25 1019.7
20260510183339 67 346 1.0 3.0 0.00 0.00 0.00 28 1019.6
20260510182823 66 336 1.0 5.0 0.00 0.00 0.00 26 1019.9
20260510182326 66 287 2.0 5.0 0.00 0.00 0.00 23 1020.1
20260510181832 66 303 1.0 5.0 0.00 0.00 0.00 29 1020.1
20260510181336 66 320 2.0 5.0 0.00 0.00 0.00 28 1020.2
20260510180823 66 214 0.0 6.0 0.00 0.00 0.00 34 1020.1
20260510180329 66 345 1.0 6.0 0.00 0.00 0.00 33 1020.1
20260510175325 66 325 1.0 4.0 0.00 0.00 0.00 27 1020.2
20260510174829 66 332 1.0 5.0 0.00 0.00 0.00 30 1020.4
20260510174350 66 304 1.0 4.0 0.00 0.00 0.00 29 1020.3
20260510173835 66 309 1.0 3.0 0.00 0.00 0.00 32 1020.3
20260510173321 66 263 1.0 3.0 0.00 0.00 0.00 36 1020.3
20260510172848 66 336 1.0 3.0 0.00 0.00 0.00 30 1020.3
20260510172333 66 214 1.0 3.0 0.00 0.00 0.00 32 1020.3
20260510171837 65 360 0.0 2.0 0.00 0.00 0.00 32 1020.3
20260510170823 65 360 0.0 2.0 0.00 0.00 0.00 36 1020.3
20260510170324 64 360 0.0 6.0 0.00 0.00 0.00 35 1020.4
20260510165826 64 360 2.0 6.0 0.00 0.00 0.00 28 1020.6
20260510165349 64 360 1.0 3.0 0.00 0.00 0.00 36 1020.6
20260510164833 64 360 0.0 2.0 0.00 0.00 0.00 33 1020.6
20260510164331 64 360 1.0 2.0 0.00 0.00 0.00 36 1020.6
20260510163835 64 360 0.0 1.0 0.00 0.00 0.00 32 1020.6
20260510163317 64 271 0.0 3.0 0.00 0.00 0.00 40 1020.7
20260510162818 64 71 1.0 4.0 0.00 0.00 0.00 34 1020.6
20260510162321 63 310 1.0 4.0 0.00 0.00 0.00 32 1020.6
20260510161826 63 9 1.0 2.0 0.00 0.00 0.00 34 1020.6
20260510161332 62 275 0.0 5.0 0.00 0.00 0.00 35 1020.5
20260510160836 62 316 0.0 5.0 0.00 0.00 0.00 34 1020.4
20260510160341 62 240 1.0 4.0 0.00 0.00 0.00 34 1020.4
20260510155827 62 323 1.0 4.0 0.00 0.00 0.00 33 1020.5
20260510155332 61 348 0.0 2.0 0.00 0.00 0.00 41 1020.5
20260510154836 61 290 1.0 3.0 0.00 0.00 0.00 40 1020.3
20260510154323 60 311 0.0 3.0 0.00 0.00 0.00 38 1020.2
20260510153828 60 309 1.0 3.0 0.00 0.00 0.00 37 1020.1
20260510153328 60 281 0.0 2.0 0.00 0.00 0.00 36 1020.0
20260510152835 60 284 0.0 4.0 0.00 0.00 0.00 35 1019.9
20260510152339 60 282 1.0 3.0 0.00 0.00 0.00 41 1019.9
20260510151820 60 257 0.0 4.0 0.00 0.00 0.00 41 1019.9
20260510151323 59 258 0.0 4.0 0.00 0.00 0.00 43 1019.9
20260510150825 59 241 0.0 1.0 0.00 0.00 0.00 42 1019.8
20260510150325 59 211 0.0 1.0 0.00 0.00 0.00 39 1019.7
20260510145828 58 307 0.0 2.0 0.00 0.00 0.00 41 1019.6
20260510145332 58 5 0.0 2.0 0.00 0.00 0.00 43 1019.7
20260510144835 58 299 0.0 1.0 0.00 0.00 0.00 41 1019.8
20260510144317 58 349 0.0 2.0 0.00 0.00 0.00 44 1019.6
20260510143820 57 349 0.0 2.0 0.00 0.00 0.00 41 1019.5
20260510143324 57 338 0.0 2.0 0.00 0.00 0.00 46 1019.5
20260510142826 57 313 0.0 1.0 0.00 0.00 0.00 46 1019.5
20260510142324 57 279 0.0 2.0 0.00 0.00 0.00 46 1019.5
20260510141850 56 295 0.0 2.0 0.00 0.00 0.00 45 1019.5
20260510141332 56 208 0.0 1.0 0.00 0.00 0.00 49 1019.5
20260510140817 55 208 0.0 1.0 0.00 0.00 0.00 51 1019.5
20260510140323 55 295 0.0 1.0 0.00 0.00 0.00 50 1019.5
20260510135850 54 105 0.0 2.0 0.00 0.00 0.00 51 1019.5
20260510135335 54 360 1.0 2.0 0.00 0.00 0.00 48 1019.5
20260510134819 54 360 0.0 1.0 0.00 0.00 0.00 52 1019.6
20260510134326 53 360 0.0 1.0 0.00 0.00 0.00 49 1019.5
20260510133833 53 360 0.0 1.0 0.00 0.00 0.00 50 1019.6
20260510133317 53 360 0.0 1.0 0.00 0.00 0.00 57 1019.7
20260510132822 52 360 0.0 0.0 0.00 0.00 0.00 52 1019.7
20260510132329 52 360 0.0 0.0 0.00 0.00 0.00 53 1019.7
20260510131850 51 360 0.0 0.0 0.00 0.00 0.00 54 1019.7
20260510131333 51 360 0.0 0.0 0.00 0.00 0.00 59 1019.6
20260510130856 50 360 0.0 0.0 0.00 0.00 0.00 58 1019.6
20260510130337 50 360 0.0 0.0 0.00 0.00 0.00 57 1019.5
20260510125819 49 360 0.0 0.0 0.00 0.00 0.00 62 1019.5
20260510125343 49 360 0.0 0.0 0.00 0.00 0.00 62 1019.3
20260510124823 48 360 0.0 1.0 0.00 0.00 0.00 60 1019.3
20260510124326 47 360 0.0 1.0 0.00 0.00 0.00 63 1019.1
20260510123830 47 360 0.0 0.0 0.00 0.00 0.00 64 1019.0
20260510123334 46 360 0.0 1.0 0.00 0.00 0.00 68 1018.9
20260510122836 46 360 0.0 1.0 0.00 0.00 0.00 68 1018.8
20260510122318 45 360 0.0 1.0 0.00 0.00 0.00 69 1018.7
20260510121819 43 360 0.0 1.0 0.00 0.00 0.00 73 1018.5
20260510121322 42 360 0.0 1.0 0.00 0.00 0.00 76 1018.4
20260510120829 41 360 0.0 1.0 0.00 0.00 0.00 82 1018.3
20260510120336 40 360 0.0 1.0 0.00 0.00 0.00 86 1018.1
20260510115821 39 360 0.0 0.0 0.00 0.00 0.00 88 1018.1
20260510115348 39 360 0.0 0.0 0.00 0.00 0.00 88 1018.0
20260510114834 39 360 0.0 0.0 0.00 0.00 0.00 88 1018.1
20260510114318 39 360 0.0 0.0 0.00 0.00 0.00 88 1018.0
20260510113822 38 360 0.0 0.0 0.00 0.00 0.00 88 1017.9
20260510113329 38 360 0.0 0.0 0.00 0.00 0.00 88 1017.9
20260510112836 38 360 0.0 0.0 0.00 0.00 0.00 87 1017.7
20260510112338 38 360 0.0 0.0 0.00 0.00 0.00 87 1017.6
20260510111821 38 360 0.0 0.0 0.00 0.00 0.00 87 1017.4
20260510111324 38 360 0.0 0.0 0.00 0.00 0.00 87 1017.4
20260510110824 38 360 0.0 0.0 0.00 0.00 0.00 86 1017.3
20260510110328 38 360 0.0 0.0 0.00 0.00 0.00 87 1017.2
20260510105850 38 360 0.0 0.0 0.00 0.00 0.00 87 1017.2
20260510105331 38 360 0.0 0.0 0.00 0.00 0.00 86 1017.2
20260510104834 39 360 0.0 0.0 0.00 0.00 0.00 86 1017.1
20260510104336 39 360 0.0 0.0 0.00 0.00 0.00 86 1017.0
20260510103833 39 360 0.0 0.0 0.00 0.00 0.00 86 1017.0
20260510103336 39 360 0.0 0.0 0.00 0.00 0.00 86 1017.0
20260510102817 39 360 0.0 0.0 0.00 0.00 0.00 86 1016.9
20260510102321 39 360 0.0 0.0 0.00 0.00 0.00 86 1016.9
20260510101824 39 360 0.0 0.0 0.00 0.00 0.00 86 1016.9
20260510101331 39 360 0.0 0.0 0.00 0.00 0.00 86 1016.8
20260510100837 39 360 0.0 0.0 0.00 0.00 0.00 86 1016.7
20260510100320 39 360 0.0 0.0 0.00 0.00 0.00 86 1016.6
20260510095821 40 360 0.0 0.0 0.00 0.00 0.00 85 1016.5
20260510095327 40 360 0.0 0.0 0.00 0.00 0.00 86 1016.5
20260510094833 40 360 0.0 0.0 0.00 0.00 0.00 85 1016.4
20260510094338 40 360 0.0 0.0 0.00 0.00 0.00 85 1016.4
20260510093824 40 360 0.0 0.0 0.00 0.00 0.00 85 1016.3
20260510093329 40 360 0.0 0.0 0.00 0.00 0.00 85 1016.4
20260510092857 40 360 0.0 0.0 0.00 0.00 0.00 85 1016.3
20260510092318 40 360 0.0 0.0 0.00 0.00 0.00 84 1016.2
20260510091822 40 360 0.0 0.0 0.00 0.00 0.00 84 1016.1
20260510091324 40 360 0.0 0.0 0.00 0.00 0.00 84 1015.9
20260510090828 41 360 0.0 0.0 0.00 0.00 0.00 84 1015.9
20260510090330 41 360 0.0 0.0 0.00 0.00 0.00 84 1015.9
20260510085831 41 360 0.0 0.0 0.00 0.00 0.00 84 1015.9
20260510085351 41 360 0.0 0.0 0.00 0.00 0.00 84 1015.9
20260510084833 41 360 0.0 0.0 0.00 0.00 0.00 84 1015.9
20260510084357 41 360 0.0 0.0 0.00 0.00 0.00 83 1015.8
20260510083820 41 360 0.0 0.0 0.00 0.00 0.00 83 1015.6
20260510083324 41 360 0.0 0.0 0.00 0.00 0.00 83 1015.4
20260510082829 41 360 0.0 0.0 0.00 0.00 0.00 82 1015.3
20260510082353 41 360 0.0 0.0 0.00 0.00 0.00 82 1015.1
20260510081817 42 360 0.0 0.0 0.00 0.00 0.00 81 1015.2
20260510081324 42 360 0.0 0.0 0.00 0.00 0.00 81 1015.3
20260510080852 42 360 0.0 0.0 0.00 0.00 0.00 80 1015.4
20260510080317 42 360 0.0 0.0 0.00 0.00 0.00 80 1015.3
20260510075823 43 360 0.0 0.0 0.00 0.00 0.00 78 1015.3
20260510075325 43 360 0.0 0.0 0.00 0.00 0.00 77 1015.4
20260510074829 43 360 0.0 1.0 0.00 0.00 0.00 77 1015.6
20260510074316 43 360 0.0 1.0 0.00 0.00 0.00 77 1015.4
20260510073823 43 360 0.0 0.0 0.00 0.00 0.00 78 1015.3
20260510073328 44 360 0.0 1.0 0.00 0.00 0.00 76 1015.3
20260510072833 44 360 0.0 1.0 0.00 0.00 0.00 75 1015.1
20260510072317 44 360 0.0 0.0 0.00 0.00 0.00 74 1015.2
20260510071821 44 360 0.0 0.0 0.00 0.00 0.00 73 1015.0
20260510071344 45 360 0.0 0.0 0.00 0.00 0.00 72 1015.0
20260510070829 45 360 0.0 0.0 0.00 0.00 0.00 71 1014.8
20260510070334 45 360 0.0 0.0 0.00 0.00 0.00 72 1014.8
20260510065817 46 360 0.0 0.0 0.00 0.00 0.00 71 1014.9
20260510065321 46 360 0.0 0.0 0.00 0.00 0.00 70 1014.9
20260510064825 46 360 0.0 0.0 0.00 0.00 0.00 70 1014.6
20260510064322 46 360 0.0 0.0 0.00 0.00 0.00 68 1014.5
20260510063825 47 360 0.0 0.0 0.00 0.00 0.00 69 1014.5
20260510063328 47 360 0.0 0.0 0.00 0.00 0.00 69 1014.5
20260510062833 48 360 0.0 0.0 0.00 0.00 0.00 66 1014.3
20260510062336 48 360 0.0 0.0 0.00 0.00 0.00 65 1014.2
20260510061821 48 360 0.0 0.0 0.00 0.00 0.00 63 1014.2
20260510061326 49 360 0.0 0.0 0.00 0.00 0.00 62 1014.2
20260510060832 49 360 0.0 0.0 0.00 0.00 0.00 63 1014.2
20260510060357 49 360 0.0 0.0 0.00 0.00 0.00 64 1014.1
20260510055821 50 360 0.0 0.0 0.00 0.00 0.00 61 1014.1
20260510055327 51 360 0.0 0.0 0.00 0.00 0.00 62 1014.1
20260510054834 51 360 0.0 0.0 0.00 0.00 0.00 57 1014.0
20260510054316 51 360 0.0 0.0 0.00 0.00 0.00 56 1013.9
20260510053823 52 360 0.0 0.0 0.00 0.00 0.00 56 1013.7
20260510053325 53 360 0.0 0.0 0.00 0.00 0.00 57 1013.4
20260510052830 53 360 0.0 0.0 0.00 0.00 0.00 58 1013.5
20260510052357 53 360 0.0 0.0 0.00 0.00 0.00 61 1013.5
20260510051820 54 360 0.0 0.0 0.00 0.00 0.00 55 1013.4
20260510051345 54 360 0.0 0.0 0.00 0.00 0.00 56 1013.4
20260510050826 54 360 0.0 0.0 0.00 0.00 0.00 46 1013.3
20260510050329 55 360 0.0 0.0 0.00 0.00 0.00 46 1013.3
20260510045817 55 360 0.0 0.0 0.00 0.00 0.00 45 1013.2
20260510045319 55 360 0.0 0.0 0.00 0.00 0.00 45 1013.1
20260510044822 55 360 0.0 0.0 0.00 0.00 0.00 44 1013.0
20260510044323 56 283 0.0 0.0 0.00 0.00 0.00 45 1012.8
20260510043825 55 283 0.0 2.0 0.00 0.00 0.00 45 1012.7
20260510043342 55 283 0.0 2.0 0.00 0.00 0.00 45 1012.6
20260510042824 55 348 0.0 0.0 0.00 0.00 0.00 46 1012.5
20260510042327 55 348 0.0 0.0 0.00 0.00 0.00 46 1012.5
20260510041850 55 348 0.0 0.0 0.00 0.00 0.00 47 1012.5
20260510041355 55 348 0.0 1.0 0.00 0.00 0.00 48 1012.4
20260510040839 56 348 0.0 1.0 0.00 0.00 0.00 47 1012.4
20260510040321 56 350 0.0 0.0 0.00 0.00 0.00 51 1012.4
20260510035825 56 350 0.0 0.0 0.00 0.00 0.00 51 1012.2
20260510035345 57 350 0.0 0.0 0.00 0.00 0.00 47 1012.1
20260510034827 57 350 0.0 0.0 0.00 0.00 0.00 52 1012.0
20260510034335 58 350 0.0 0.0 0.00 0.00 0.00 49 1011.9
20260510033837 58 350 0.0 1.0 0.00 0.00 0.00 43 1011.8
20260510033323 58 350 0.0 1.0 0.00 0.00 0.00 42 1011.7
20260510032830 58 336 0.0 1.0 0.00 0.00 0.00 42 1011.7
20260510032337 58 355 0.0 1.0 0.00 0.00 0.00 43 1011.6
20260510031845 59 355 0.0 1.0 0.00 0.00 0.00 43 1011.6
20260510031328 59 277 0.0 1.0 0.00 0.00 0.00 42 1011.5
20260510030835 59 277 0.0 0.0 0.00 0.00 0.00 42 1011.4
20260510030320 59 277 0.0 0.0 0.00 0.00 0.00 42 1011.2
20260510025825 60 277 0.0 0.0 0.00 0.00 0.00 41 1011.1
20260510025332 60 277 0.0 0.0 0.00 0.00 0.00 41 1011.0
20260510024835 60 277 0.0 0.0 0.00 0.00 0.00 42 1010.9
20260510024317 60 277 0.0 0.0 0.00 0.00 0.00 43 1010.8
20260510023820 60 277 0.0 0.0 0.00 0.00 0.00 44 1010.8
20260510023317 60 277 0.0 0.0 0.00 0.00 0.00 45 1010.6
20260510022822 60 277 0.0 0.0 0.00 0.00 0.00 48 1010.5
20260510022325 61 277 0.0 0.0 0.00 0.00 0.00 46 1010.2
20260510021830 61 277 0.0 0.0 0.00 0.00 0.00 45 1010.1
20260510021317 62 277 0.0 3.0 0.00 0.00 0.00 45 1010.1
20260510020821 62 277 0.0 3.0 0.00 0.00 0.00 45 1010.0
20260510020348 62 240 0.0 0.0 0.00 0.00 0.00 46 1010.0
20260510015834 62 240 0.0 0.0 0.00 0.00 0.00 46 1009.9
20260510015339 63 240 0.0 0.0 0.00 0.00 0.00 47 1009.7
20260510014823 63 240 0.0 1.0 0.00 0.00 0.00 46 1009.5
20260510014328 63 240 0.0 2.0 0.00 0.00 0.00 47 1009.4
20260510013833 63 240 0.0 2.0 0.00 0.00 0.00 47 1009.3
20260510013321 63 355 0.0 2.0 0.00 0.00 0.00 49 1009.2
20260510012828 64 17 0.0 3.0 0.00 0.00 0.00 51 1009.1
20260510012329 64 311 1.0 4.0 0.00 0.00 0.00 51 1009.0
20260510011833 64 288 1.0 4.0 0.00 0.00 0.00 50 1008.8
20260510011336 64 348 0.0 2.0 0.00 0.00 0.00 51 1008.9
20260510010859 64 360 0.0 2.0 0.00 0.00 0.00 52 1008.8
20260510010320 65 360 0.0 2.0 0.00 0.00 0.00 50 1008.6
20260510005823 65 360 0.0 3.0 0.00 0.00 0.00 51 1008.4
20260510005347 65 360 1.0 3.0 0.00 0.00 0.00 50 1008.3
20260510004829 65 360 0.0 2.0 0.00 0.00 0.00 51 1008.2
20260510004355 65 360 0.0 2.0 0.00 0.00 0.00 50 1008.1
20260510003836 65 360 0.0 2.0 0.00 0.00 0.00 49 1008.1
20260510003339 66 360 0.0 2.0 0.00 0.00 0.00 48 1008.0
20260510002818 66 360 0.0 3.0 0.00 0.00 0.00 48 1007.9
20260510002322 66 360 1.0 3.0 0.00 0.00 0.00 48 1007.9
20260510001828 66 308 0.0 3.0 0.00 0.00 0.00 47 1007.8
20260510001334 66 270 0.0 2.0 0.00 0.00 0.00 47 1007.8
20260510000821 67 212 0.0 2.0 0.00 0.00 0.00 47 1007.8
20260510000327 67 333 0.0 3.0 0.00 0.00 0.00 46 1007.8
20260509235836 67 304 1.0 6.0 0.00 0.00 0.00 45 1007.8
20260509235322 67 336 1.0 6.0 0.00 0.00 0.00 46 1007.7